Dewpoint
30 31 26 23 22 31 27 28 27 27 28 26 33 34 35 38 39 40 40 39 39 37 34 33 33 33 32 31 29 28 27 26 28 29 29 28 28 28 28 27 26 27 26 27
23 27 29 26 25 30 29 29 28 25 23 26 32 36 35 37 39 39 38 37 35 32 31 30 29 29 28 27 25 24 25 25 26 26 25 26 27 26 25 24 23 24 24 26
23 28 28 24 25 25 29 30 26 24 25 33 35 33 34 36 38 38 37 35 32 31 29 28 27 27 25 24 25 24 23 23 24 24 22 24 24 23 22 21 21 21 24 26
25 28 16 26 27 23 24 29 31 28 31 32 34 34 35 37 38 37 35 33 32 30 28 27 25 23 23 22 22 22 22 22 22 22 21 21 21 20 20 20 19 19 24 24
25 25 26 28 28 27 25 25 29 30 32 34 34 34 34 36 36 35 33 32 30 28 27 23 21 21 20 20 21 21 21 20 20 21 21 20 18 18 19 19 19 18 22 23
27 22 20 26 26 28 26 24 34 34 34 33 32 31 33 34 33 33 31 30 28 27 24 22 20 18 17 18 19 19 20 20 21 21 20 18 17 18 19 18 16 16 18 20
26 25 28 31 30 27 24 27 34 34 34 33 31 33 34 33 32 30 28 26 25 23 21 19 18 17 15 14 15 19 20 21 20 17 19 17 18 18 17 16 16 16 16 18
28 23 22 33 24 25 29 32 35 35 35 34 34 34 33 31 28 26 25 24 22 21 19 15 11 10 9 11 14 17 18 18 16 16 14 15 16 17 17 15 15 15 15 16
31 30 35 35 25 28 31 34 34 35 36 35 33 32 30 28 26 25 23 21 18 16 14 13 11 9 9 12 15 17 17 16 15 15 15 15 13 15 16 16 15 14 15 16
31 32 34 35 34 34 33 36 37 37 35 33 32 31 29 27 25 23 19 15 13 11 11 11 11 11 13 15 15 15 15 13 13 14 15 13 12 12 16 15 15 15 15 16
33 33 34 35 34 34 38 37 36 35 34 33 32 30 28 26 23 20 18 14 13 11 11 11 11 12 13 15 16 14 13 12 12 15 14 11 11 14 15 17 16 15 16 18
32 36 36 35 35 39 37 36 35 34 33 32 31 29 27 25 22 20 18 16 14 11 11 12 12 13 15 16 15 13 10 11 14 13 13 10 10 14 21 23 24 25 24 20
37 39 38 38 36 38 36 36 35 34 33 31 29 27 27 23 23 23 19 17 13 12 13 14 15 15 16 18 16 14 10 9 9 11 11 9 9 13 14 19 22 23 25 19
37 38 38 36 34 38 36 35 36 33 31 30 27 27 24 24 24 21 19 16 14 15 16 16 17 17 17 17 15 14 13 18 7 8 9 11 11 14 16 16 17 15 21 15
38 37 36 38 38 36 34 33 31 30 29 27 27 25 24 23 21 20 19 16 16 18 19 19 18 18 18 17 14 15 11 7 8 9 13 14 14 14 15 15 13 12 13 16
39 39 38 37 35 34 32 31 30 29 28 27 26 25 24 23 20 18 17 18 17 18 18 20 19 18 17 14 15 14 11 13 11 10 13 13 13 13 13 15 13 14 12 12
39 38 38 36 35 33 31 31 31 29 28 27 25 25 22 19 19 18 18 20 20 20 19 18 18 15 14 12 13 13 13 12 13 12 13 11 12 13 15 16 13 12 11 14
37 38 38 37 35 34 32 32 30 29 28 26 25 23 21 21 19 21 20 20 21 20 18 17 16 15 10 11 13 14 12 12 11 13 12 15 15 14 14 14 14 14 13 13
37 37 39 39 36 34 33 31 30 29 27 27 24 23 22 22 21 20 20 20 19 16 16 17 19 13 9 14 14 14 13 13 13 15 15 14 14 14 14 13 14 16 13 14
38 38 40 40 37 35 33 31 30 27 27 25 26 25 23 23 22 22 20 18 18 18 16 17 12 10 11 13 15 13 13 14 13 14 15 14 15 15 14 11 13 12 15 13
39 40 39 40 37 35 32 31 29 28 27 27 25 24 23 23 22 23 21 19 17 16 17 14 10 9 10 12 13 14 15 15 14 14 14 14 14 14 14 14 12 13 13 11
38 38 36 36 34 32 31 30 29 28 27 26 25 24 22 21 22 22 22 18 17 16 13 11 9 10 11 13 15 15 15 14 13 13 12 12 12 6 7 10 9 11 10 6
37 36 33 33 32 30 30 30 29 28 26 25 24 23 21 21 20 19 17 17 17 15 11 9 9 9 10 15 15 14 13 12 11 11 10 7 8 4 7 8 7 7 -1 6
35 34 32 31 30 29 27 28 27 26 26 26 25 23 21 22 22 21 20 19 15 13 10 8 9 8 10 11 9 9 9 7 8 7 9 4 -1 2 3 -1 2 4 2 3
30 29 29 29 28 27 26 25 25 24 24 22 23 23 24 23 22 20 18 14 12 8 8 6 7 6 8 6 6 4 4 6 5 3 2 -1 -0 -6 -4 -0 -4 -3 -4 -1
29 29 30 29 27 26 25 25 24 24 23 24 24 24 22 21 18 17 16 13 9 6 7 6 5 6 6 6 4 2 5 8 5 4 1 0 0 0 -2 -1 -6 -6 -10 -9
28 28 27 27 27 26 25 25 24 23 24 24 21 21 20 19 18 16 14 10 8 7 6 6 6 8 6 7 4 2 5 4 1 3 -2 -5 -5 -10 -10 -10 -12 -12 -11 -7
Lifted_Index
3 3 3 3 3 3 3 3 3 3 3 3 3 3 2 2 2 2 3 5 6 6 6 6 6 6 7 7 8 9 9 9 10 12 14 15 16 17 19 20 21 22 22 22
3 3 3 3 3 3 3 3 3 3 4 4 3 3 3 3 3 3 4 6 7 7 7 7 7 7 7 8 9 10 10 11 12 13 15 16 18 19 20 21 22 22 22 22
3 3 3 3 3 3 3 3 4 4 4 4 3 3 3 4 4 4 6 7 8 8 8 8 9 9 9 10 11 12 12 13 14 16 17 19 20 21 21 22 22 22 23 23
3 3 3 3 3 3 3 4 4 4 4 3 3 4 4 5 5 6 7 8 9 9 9 10 11 11 12 12 13 13 14 15 17 18 20 21 21 22 22 22 23 23 23 23
3 3 3 3 3 3 3 3 3 3 4 4 4 4 5 5 6 7 8 9 9 10 11 11 12 13 13 14 14 15 16 17 19 21 21 22 22 22 22 23 23 23 24 24
3 3 3 3 3 2 2 2 3 3 4 4 4 4 4 5 7 8 9 9 10 11 11 12 13 14 14 14 15 16 18 20 22 22 22 22 23 23 23 23 24 24 24 24
2 3 3 3 3 2 2 2 2 3 3 4 4 4 5 6 7 8 9 10 11 11 12 13 14 14 15 16 17 19 21 22 23 23 23 23 23 23 23 24 24 24 24 24
2 3 3 3 3 3 2 2 3 3 3 4 4 5 5 7 8 8 9 10 11 12 12 14 15 15 16 17 20 22 23 23 24 24 24 24 24 23 24 24 24 23 24 24
2 2 2 2 3 3 2 2 3 3 3 4 4 5 6 7 8 8 9 11 12 12 13 14 15 16 17 19 22 23 24 24 24 24 24 24 24 24 24 24 23 23 23 23
2 2 2 2 3 3 3 2 3 3 3 4 5 6 7 8 8 9 10 11 12 13 13 14 16 17 19 21 23 24 24 24 24 24 24 24 24 24 24 24 23 23 23 23
1 2 2 2 3 3 3 2 3 3 4 4 5 6 7 8 9 9 11 12 13 13 14 15 16 18 21 23 24 24 24 24 24 24 24 24 24 24 24 24 24 24 24 24
1 1 1 2 2 2 2 2 3 4 4 5 6 6 7 8 9 10 11 12 13 14 14 15 17 19 22 24 24 24 24 24 24 24 24 24 24 24 24 24 24 24 24 24
1 0 1 1 2 2 2 2 3 4 4 5 6 7 8 9 10 11 12 13 14 14 15 16 17 19 22 24 25 24 24 24 24 24 24 24 24 24 24 24 24 24 24 25
1 1 1 1 2 2 2 2 3 3 4 5 6 7 8 9 10 11 12 13 14 15 15 16 18 20 23 25 25 24 24 24 24 24 24 24 24 24 24 24 24 24 25 25
2 2 1 1 2 2 2 2 2 3 4 5 6 7 8 9 10 11 12 14 14 15 16 17 19 21 24 25 25 25 25 25 25 25 25 24 24 24 24 24 24 24 24 25
3 2 2 1 2 2 2 2 2 3 4 5 5 7 8 9 11 12 13 14 14 15 16 17 20 23 25 26 25 25 25 25 25 25 25 25 24 24 24 24 24 24 24 24
3 3 2 2 2 2 1 2 2 3 4 4 5 7 8 9 11 12 13 14 15 16 17 19 21 24 26 26 26 25 25 25 25 25 25 25 25 25 25 25 24 24 24 25
4 3 3 2 2 2 2 2 2 3 4 4 5 6 8 9 10 12 13 14 15 16 18 20 23 25 26 26 26 26 26 25 25 25 25 25 25 25 25 25 25 24 24 25
4 4 3 3 2 2 2 3 3 3 4 5 5 7 8 9 11 12 13 13 14 15 18 22 24 25 26 26 27 26 26 26 25 25 25 25 25 25 25 25 25 25 24 24
3 3 3 3 3 2 2 2 3 3 4 5 6 7 8 10 11 12 13 13 15 17 20 23 24 25 26 27 27 27 26 26 25 25 25 25 25 25 26 26 25 25 24 24
1 2 3 3 3 2 2 2 2 3 4 5 6 8 9 10 12 13 13 14 16 20 22 24 25 26 26 27 27 27 27 26 26 25 25 25 26 26 26 26 26 25 25 25
2 2 2 3 3 3 2 2 2 3 4 5 6 8 9 11 12 12 13 15 19 22 23 24 25 26 27 27 27 27 27 26 26 26 26 26 26 26 26 26 26 26 25 25
3 3 3 3 3 3 2 2 3 3 4 6 7 8 10 11 12 13 15 18 21 23 24 25 26 27 27 27 27 27 27 26 26 26 26 26 26 26 26 26 26 26 26 26
4 3 2 3 3 3 3 3 4 5 6 7 9 10 11 12 13 15 17 20 23 24 25 26 26 27 27 27 27 27 27 27 26 26 27 27 27 27 27 27 27 27 27 27
4 2 1 2 2 2 2 3 4 6 8 9 10 12 13 14 15 17 20 22 24 25 26 26 27 27 27 27 27 27 27 27 27 27 27 27 27 27 27 27 27 27 27 27
3 2 1 1 1 2 2 3 4 7 8 9 10 13 14 15 17 19 21 23 24 25 26 26 27 27 27 28 28 27 27 27 27 27 27 28 28 27 27 27 27 27 27 28
3 2 1 1 1 2 3 3 4 7 8 9 10 13 14 16 18 20 22 23 24 25 26 26 27 27 27 28 28 28 27 27 27 27 28 28 28 28 27 27 27 27 28 28